This demonstration page uses our WeatherBlox Daily Observations layout. Learn more.

Left ArrowRight Arrow

30.21309, -93.2044

Hourly Observations for July 29, 2019

Temp ( °F °C ) Dew Point ( °F °C ) Humidity (%) Winds ( mph kmh ) Pressure ( in mb ) Visibility ( mi km ) Precip ( " mm )
12:15 am 00:15 Clear with Rain 73 23 72 22.2 95 95 E 3 6 30.08 1019 10 16 0.00 0.00
12:35 am 00:35 Clear with Rain 73 23 72 22.2 95 95 E 10 17 30.07 1018 10 16 0.00 0.00
12:55 am 00:55 Clear with Rain 73 23 72 22.2 95 95 E 6 9 30.07 1018 10 16 0.00 0.00
1:15 am 01:15 Partly Cloudy with Heavy Rain 73 22.8 72 22.2 96 96 E 10 17 30.07 1018 10 16 0.00 0.00
1:35 am 01:35 Partly Cloudy with Heavy Rain 73 22.6 72 22.1 97 97 E 9 15 30.07 1018 10 16 0.00 0.00
1:55 am 01:55 Clear with Rain 73 22.6 72 22.2 98 98 E 12 19 30.06 1018 10 16 0.00 0.00
2:15 am 02:15 Clear with Heavy Rain 73 22.8 72 22.4 98 98 E 9 15 30.06 1018 7 11 0.00 0.00
2:35 am 02:35 Clear with Heavy Rain 73 23 73 22.6 98 98 Calm 30.06 1018 7 11 0.00 0.00
2:55 am 02:55 Clear with Heavy Rain 73 23 73 22.6 98 98 Calm 30.06 1018 7 11 0.00 0.00
3:15 am 03:15 Clear with Heavy Rain 73 22.9 73 22.6 98 98 E 3 6 30.06 1018 5 8 0.00 0.00
3:35 am 03:35 Clear with Heavy Rain 73 23 73 22.8 99 99 E 9 15 30.05 1018 4 6 0.00 0.00
3:55 am 03:55 Mostly Cloudy with Heavy Rain 73 22.8 73 22.6 99 99 E 9 15 30.05 1018 1 1 0.00 0.00
4:15 am 04:15 Clear with Heavy Rain 73 22.7 73 22.5 99 99 E 10 17 30.05 1018 3 4 0.00 0.00
4:35 am 04:35 Clear with Heavy Rain 73 23 73 22.7 98 98 Calm 30.05 1018 7 11 0.00 0.00
4:55 am 04:55 Clear with Heavy Rain 73 22.9 73 22.6 98 98 E 3 6 30.05 1018 5 8 0.00 0.00
5:15 am 05:15 Clear with Heavy Rain 73 23 73 22.8 99 99 Calm 30.05 1018 7 11 0.00 0.00
5:35 am 05:35 Clear with Heavy Rain 74 23.1 73 23 99 99 E 5 7 30.05 1018 10 16 0.00 0.00
6:00 am 06:00 Mostly Clear 73 23 73 23 100 100 E 5 7 30.05 1018 10 16 0.00 0.00
6:50 am 06:50 Mostly Sunny 73 23 72 22 94 94 E 9 15 30.06 1018 10 16 0.00 0.00
7:45 am 07:45 Mostly Sunny 77 25 75 24 94 94 Calm 30.07 1018 10 16 0.00 0.00
8:45 am 08:45 Mostly Sunny 82 28 77 25 84 84 SE 6 9 30.08 1019 10 16 0.00 0.00
9:45 am 09:45 Mostly Cloudy 86 30 77 25 75 75 SSW 8 13 30.08 1019 10 16 0.00 0.00
10:45 am 10:45 Partly Cloudy 86 30 75 24 70 70 SW 12 19 30.08 1019 10 16 0.00 0.00
11:55 am 11:55 Mostly Cloudy 88 31 75 24 66 66 SW 12 19 30.08 1019 10 16 0.00 0.00
12:55 pm 12:55 Mostly Cloudy 86 30 77 25 75 75 SSW 7 11 30.07 1018 10 16 0.00 0.00
2:50 pm 14:50 Mostly Cloudy 86 30 77 25 75 75 SSW 12 19 30.03 1017 10 16 0.00 0.00
3:50 pm 15:50 Mostly Cloudy with Thunderstorms 77 25 72 22 83 83 W 5 7 30.04 1017 5 8 0.00 0.00
5:50 pm 17:50 Partly Cloudy 82 28 73 23 74 74 SW 3 6 30.02 1017 N/A 0.00 0.00
6:50 pm 18:50 Partly Cloudy 82 28 75 24 79 79 SW 5 7 29.99 1016 N/A 0.00 0.00
7:55 pm 19:55 Mostly Sunny 81 27 77 25 89 89 ESE 3 6 30.01 1016 N/A 0.00 0.00
8:50 pm 20:50 Mostly Clear 79 26 77 25 94 94 ESE 7 11 30.01 1016 N/A 0.00 0.00
9:50 pm 21:50 Mostly Clear 81 27 77 25 89 89 SW 5 7 30.01 1016 N/A 0.00 0.00
10:15 pm 22:15 Clear with Heavy Rain 81 27 77 25 89 89 E 7 11 30.02 1017 10 16 0.00 0.00
10:35 pm 22:35 Clear with Heavy Rain 79 26.1 77 25.1 94 94 SSE 5 7 30.02 1017 10 16 0.00 0.00
10:55 pm 22:55 Clear with Rain 78 25.6 77 24.8 95 95 E 7 11 30.02 1017 10 16 0.00 0.00
11:15 pm 23:15 Partly Cloudy with Rain 78 25.7 77 25 96 96 SE 5 7 30.02 1017 10 16 0.00 0.00
11:35 pm 23:35 Mostly Cloudy with Rain 78 25.5 77 24.9 96 96 Calm 30.02 1017 10 16 0.00 0.00
11:55 pm 23:55 Mostly Cloudy with Rain 78 25.5 77 25 97 97 Calm 30.03 1017 10 16 0.00 0.00

Powered by AerisWeather